This demonstration page uses our WeatherBlox Daily Observations layout. Learn more.

Left ArrowRight Arrow

Hourly Observations for November 2, 2015

Temp ( °F °C ) Dew Point ( °F °C ) Humidity (%) Winds ( mph kmh ) Pressure ( in mb ) Visibility ( mi km ) Precip ( " mm )
12:53 am 00:53 Cloudy with Light Rain 64 17.8 62 16.7 93 93 NNE 3 6 29.95 1014 9 14 0.00 0.03
1:53 am 01:53 Cloudy with Light Rain 64 17.8 62 16.7 93 93 NE 7 11 29.93 1014 6 10 0.03 0.76
2:53 am 02:53 Cloudy with Light Rain 64 17.8 61 16.1 90 90 NE 6 9 29.91 1013 6 10 0.04 1.02
3:53 am 03:53 Cloudy with Rain 64 17.8 62 16.7 93 93 N 5 7 29.91 1013 5 8 0.05 1.27
4:25 am 04:25 Cloudy with Heavy Rain 63 17.2 62 16.7 97 97 NNE 5 7 29.91 1013 3 4 0.10 2.54
4:37 am 04:37 Cloudy with Heavy Rain 63 17.2 62 16.7 97 97 N 6 9 29.91 1013 3 5 0.15 3.81
4:53 am 04:53 Cloudy with Rain 64 17.8 62 16.7 93 93 N 7 11 29.91 1013 3 5 0.19 4.83
5:26 am 05:26 Cloudy with Nearby Thunderstorms 64 18 63 17 94 94 NNE 6 9 29.94 1014 4 6 0.00 0.00
5:41 am 05:41 Cloudy with Heavy Rain 64 17.8 62 16.7 93 93 NE 7 11 29.94 1014 4 6 0.13 3.30
5:53 am 05:53 Cloudy with Heavy Rain 64 17.8 62 16.7 93 93 ENE 9 15 29.90 1013 4 6 0.19 4.83
6:40 am 06:40 Cloudy with Heavy Rain 64 18 63 17 94 94 ENE 5 7 29.94 1014 2 3 0.00 0.00
6:53 am 06:53 Cloudy with Nearby Thunderstorms 63 17.2 62 16.7 97 97 NE 7 11 29.92 1013 1 2 0.60 15.24
7:01 am 07:01 Cloudy with Nearby Thunderstorms 63 17.2 62 16.7 97 97 E 7 11 29.94 1014 2 3 0.08 2.03
7:13 am 07:13 Cloudy with Heavy Rain 64 17.8 62 16.7 93 93 ENE 8 13 29.94 1014 3 4 0.19 4.83
7:33 am 07:33 Cloudy with Heavy Rain 63 17.2 62 16.7 97 97 NE 7 11 29.94 1014 2 3 0.42 10.67
7:38 am 07:38 Cloudy with Heavy Rain 64 18 63 17 94 94 E 6 9 29.94 1014 3 5 0.00 0.00
7:53 am 07:53 Cloudy with Heavy Rain 64 17.8 62 16.7 93 93 E 5 7 29.95 1014 4 6 0.52 13.21
7:58 am 07:58 Cloudy with Heavy Rain 64 18 63 17 94 94 E 6 9 29.97 1015 3 4 0.00 0.00
8:29 am 08:29 Cloudy with Heavy Rain 64 17.8 62 16.7 93 93 E 7 11 29.97 1015 3 5 0.38 9.65
8:33 am 08:33 Cloudy with Heavy Rain 64 17.8 62 16.7 93 93 E 10 17 29.97 1015 3 4 0.40 10.16
8:53 am 08:53 Cloudy with Rain 65 18.3 62 16.7 90 90 E 9 15 29.95 1014 5 8 0.47 11.94
9:09 am 09:09 Cloudy with Rain 65 18.3 62 16.7 90 90 E 6 9 29.97 1015 4 6 0.04 1.02
9:26 am 09:26 Cloudy with Rain 65 18.3 62 16.7 90 90 E 10 17 29.97 1015 4 6 0.09 2.29
9:37 am 09:37 Cloudy with Rain 65 18.3 62 16.7 90 90 E 9 15 29.94 1014 4 6 0.12 3.05
9:49 am 09:49 Cloudy with Heavy Rain 64 18 63 17 94 94 ENE 8 13 29.94 1014 2 3 0.21 5.33
9:53 am 09:53 Cloudy with Heavy Rain 65 18.3 63 17.2 93 93 NE 9 15 29.92 1013 2 3 0.24 6.10
9:56 am 09:56 Cloudy with Rain 64 18 63 17 94 94 NNE 7 11 29.94 1014 3 5 0.00 0.00
10:53 am 10:53 Cloudy with Light Rain 66 18.9 63 17.2 90 90 Calm 29.93 1014 3 5 0.02 0.51
11:53 am 11:53 Cloudy 67 19.4 64 17.8 91 91 Calm 29.92 1013 10 16 0.01 0.25
12:53 pm 12:53 Cloudy with Mist and Fog 67 19.4 65 18.3 93 93 ENE 6 9 29.89 1012 3 5 0.00 0.00
1:35 pm 13:35 Cloudy with Mist and Fog 68 20 66 18.9 93 93 NE 3 6 29.85 1011 3 5 0.00 0.00
1:53 pm 13:53 Cloudy with Mist and Fog 68 20 66 18.9 93 93 NNE 5 7 29.87 1012 2 3 0.00 0.00
2:13 pm 14:13 Cloudy with Mist and Fog 68 20 66 18.9 93 93 NNE 3 6 29.85 1011 3 5 0.00 0.03
2:53 pm 14:53 Cloudy 69 20.6 67 19.4 93 93 N 3 6 29.87 1012 10 16 0.00 0.03
3:53 pm 15:53 Cloudy 69 20.6 67 19.4 93 93 NNE 5 7 29.88 1012 10 16 0.00 0.00
4:53 pm 16:53 Cloudy 69 20.6 67 19.4 93 93 NNE 5 7 29.89 1012 7 11 0.00 0.00
5:53 pm 17:53 Cloudy with Mist and Fog 68 20 66 18.9 93 93 NE 5 7 29.91 1013 4 6 0.00 0.00
6:53 pm 18:53 Cloudy with Mist and Fog 68 20 66 18.9 93 93 N 3 6 29.93 1014 4 6 0.00 0.00
7:14 pm 19:14 Cloudy with Mist and Fog 66 19 66 19 100 100 N 5 7 29.97 1015 3 4 0.00 0.00
7:53 pm 19:53 Cloudy with Mist and Fog 67 19.4 65 18.3 93 93 ENE 5 7 29.95 1014 3 4 0.00 0.00
8:25 pm 20:25 Cloudy with Mist and Fog 67 19.4 65 18.3 93 93 NE 7 11 29.97 1015 4 6 0.00 0.00
8:53 pm 20:53 Cloudy with Mist and Fog 67 19.4 65 18.3 93 93 NNE 7 11 29.96 1014 4 6 0.00 0.00
9:53 pm 21:53 Cloudy with Mist and Fog 66 18.9 64 17.8 93 93 NNE 5 7 29.97 1015 5 8 0.00 0.00
10:53 pm 22:53 Cloudy 66 18.9 64 17.8 93 93 ENE 5 7 29.96 1015 7 11 0.00 0.00
11:53 pm 23:53 Cloudy with Mist and Fog 66 18.9 64 17.8 93 93 N 6 9 29.97 1015 5 8 0.00 0.00

Powered by AerisWeather